Flag for Brazil Weather past 2 weeks in Pirassununga, São Paulo, Brazil

Now
66 °F

Clear.


Feels Like: 66 °F
Forecast: 60 / 90 °F
Wind: 3 mph from Southeast

Location: Pirassununga Airport

Current Time: Sep 15, 2014 at 1:33:13 AM

Latest Report: Sep 14, 2014 at 11:00 PM


Visibility: 10 mi

Pressure: 30.04 "Hg

Humidity: 56%

Dew point: 50 °F

Location of PirassunungaLocation

Historic Weather in Pirassununga — Graph

°F

Pirassununga temperature yesterday

Maximum temperature yesterday: 91 °F (at 4:00 PM)
Minimum temperature yesterday: 52 °F (at 6:00 AM)
Average temperature yesterday: 77 °F

Past Weeks' High & Low Weather Summary

 TemperatureHumidityPressure
High93 °F (Aug 31, 3:00 PM)100% (Aug 31, 6:00 AM)30.24 "Hg (Aug 31, 6:00 AM)
Low50 °F (Aug 31, 6:00 AM)15% (Sep 11, 3:00 PM)29.89 "Hg (Aug 31, 5:00 PM)
Average73 °F52%30.07 "Hg
* Reported Aug 30 11:00 PM — Sep 14 11:00 PM, Pirassununga, Weather by CustomWeather, © 2014

Note: Actual official high and low records may vary slightly from our data, if they occured in-between our weather recording intervals... More about our weather records

Advertising

Pirassununga weather history for previous 24 hours

 ConditionsComfort  
Time TempWeatherWind HumidityBarometerVisibility
11:00 PM
Sep 14
66 °FClear.3 mph56%30.04 "Hg10 mi
10:00 PM66 °FClear.3 mph60%30.04 "Hg10 mi
9:00 PM68 °FClear.2 mph56%30.04 "Hg10 mi
8:00 PM72 °FClear.3 mph50%30.01 "Hg10 mi
7:00 PM82 °FClear.6 mph30%30.01 "Hg10 mi
6:00 PM86 °FClear.6 mph25%30.01 "Hg10 mi
5:00 PM90 °FSunny.2 mph21%30.01 "Hg10 mi
4:00 PM91 °FSunny.5 mph20%29.98 "Hg10 mi
3:00 PM90 °FSunny.3 mph22%30.01 "Hg10 mi
2:00 PM90 °FSunny.5 mph24%30.01 "Hg10 mi
1:00 PM90 °FSunny.3 mph24%30.07 "Hg10 mi
12:00 PM86 °FSunny.10 mph27%30.09 "Hg10 mi
11:00 AM82 °FSunny.10 mph30%30.09 "Hg10 mi
10:00 AM81 °FSunny.12 mph32%30.12 "Hg10 mi
9:00 AM73 °FSunny.3 mph44%30.12 "Hg10 mi
8:00 AM66 °FSunny.2 mph56%30.12 "Hg10 mi
7:00 AM55 °FSunny.2 mph82%30.09 "Hg10 mi
6:00 AM52 °FSunny.2 mph88%30.09 "Hg10 mi
Weather by CustomWeather, © 2014

See weather overviewHow to use our weather pages